Wetbulb
73.92 74.78 75.13 75.91 77.06 76.99 77.20 77.70 77.18 76.31 75.91 74.92 75.34 74.51 73.10 73.24 72.74 73.86 74.03 73.24 73.35 73.87 74.41 74.28 74.47 74.75 75.32 75.70 76.19 76.59 77.04 77.52 78.05 77.40 77.18 77.03 76.77 76.64 76.34 76.41 76.52 76.69 76.65
76.13 75.12 75.91 75.69 76.72 78.11 77.96 77.76 76.96 76.21 75.13 74.80 75.22 74.83 73.56 73.43 73.65 74.31 74.71 74.56 74.76 74.94 74.52 74.62 75.01 75.45 75.89 76.09 76.64 76.79 77.39 77.94 78.34 78.10 78.06 77.44 77.31 76.66 76.25 76.17 76.23 76.16 76.34
76.67 77.84 75.83 76.50 76.55 78.18 78.44 77.69 77.13 76.56 74.46 74.32 74.97 75.28 75.15 74.63 73.97 73.95 75.08 75.44 74.31 73.05 74.16 74.89 75.33 75.84 76.06 76.16 76.82 77.39 78.61 78.96 78.55 78.29 78.13 78.13 78.06 77.23 75.94 76.18 76.12 75.54 75.23
77.66 77.37 76.39 76.44 77.74 78.68 78.00 76.92 75.95 74.53 74.62 74.07 73.89 74.12 74.95 75.36 75.69 75.34 75.80 77.13 77.45 76.72 74.44 74.94 74.63 74.94 75.22 76.03 76.99 78.28 78.88 78.46 78.35 77.97 77.84 78.15 77.42 77.31 76.70 76.62 76.02 75.07 74.92
76.86 78.07 76.47 77.06 79.80 79.13 79.02 77.92 75.97 75.79 74.07 73.83 73.53 74.71 75.27 75.30 75.94 75.41 76.38 76.77 77.08 76.60 77.70 75.61 74.72 74.95 74.88 75.80 77.17 78.26 78.16 78.34 77.90 77.75 78.00 77.75 77.58 77.43 77.32 76.92 76.10 75.34 74.74
77.09 78.16 76.58 78.45 78.69 78.11 77.89 77.65 77.94 77.63 76.98 76.29 74.08 74.16 76.16 75.45 76.47 77.35 76.84 76.29 77.73 77.78 77.59 79.05 78.55 78.37 75.73 75.95 76.09 76.74 77.08 77.55 77.63 78.00 77.46 76.90 76.73 76.93 77.13 77.18 76.33 75.65 74.72
78.07 78.62 76.76 77.63 78.83 77.97 78.01 79.15 77.44 77.22 75.78 77.82 74.47 74.05 74.60 75.16 74.85 75.46 76.23 76.28 77.05 76.88 77.85 78.70 78.90 78.75 78.53 76.61 76.55 75.99 76.38 75.00 75.67 75.68 76.03 76.07 76.18 76.11 76.63 76.35 76.24 75.48 75.05
77.63 77.87 78.52 77.37 78.36 77.68 79.51 79.05 78.58 76.09 76.91 78.30 74.46 73.88 69.41 71.56 72.83 74.64 76.13 76.30 76.24 76.93 76.88 77.82 78.53 79.40 79.85 79.20 78.80 75.39 75.89 75.11 74.95 75.08 75.14 74.97 75.53 75.58 75.55 76.41 75.66 75.44 75.39
77.45 78.26 78.07 77.90 78.58 77.29 77.08 78.90 78.54 77.28 74.71 77.66 77.61 74.11 69.69 69.28 72.13 74.44 75.69 76.01 77.93 76.75 77.50 78.50 78.26 79.67 80.37 79.23 78.65 78.29 74.29 71.90 73.16 74.14 74.39 74.48 74.83 75.25 75.63 76.50 75.57 75.66 75.62
77.24 77.59 77.46 77.98 78.45 77.23 78.10 78.43 78.94 78.36 78.00 75.53 76.71 76.94 77.20 76.43 70.70 70.13 74.25 75.54 76.46 76.15 77.95 77.03 78.11 78.70 79.42 78.23 76.58 76.71 73.05 72.68 73.38 73.61 73.64 74.18 74.55 74.93 75.58 76.84 76.34 75.35 75.76
77.72 76.90 78.04 77.98 77.59 75.93 77.66 78.74 78.26 79.10 77.85 75.45 74.60 76.23 76.48 75.30 76.16 71.91 69.25 73.20 75.02 76.05 75.73 76.19 76.82 76.75 78.49 77.39 77.23 75.40 73.07 72.57 72.76 72.49 72.84 73.73 73.98 74.70 75.77 76.61 77.45 75.82 75.19
75.88 77.69 77.71 78.23 78.00 77.63 77.05 77.42 78.75 78.24 78.23 77.40 76.24 76.23 74.07 72.68 72.60 72.05 70.72 72.12 72.30 74.75 75.52 76.48 76.29 76.85 78.48 78.27 76.84 73.59 73.96 72.84 72.43 71.51 71.32 72.19 72.89 73.80 75.38 76.61 76.85 75.82 74.91
74.84 76.86 77.64 77.52 76.88 78.23 77.75 77.59 78.48 78.37 77.87 77.12 77.60 75.79 76.53 74.80 74.69 74.30 72.61 72.03 71.03 73.73 74.90 76.88 77.45 78.31 77.99 78.60 77.87 74.78 75.89 72.96 71.30 70.21 70.17 70.60 71.56 72.66 73.30 74.75 75.88 75.67 75.22
74.79 76.26 76.55 76.99 77.27 77.68 77.47 77.68 76.23 76.37 76.90 76.61 77.24 77.52 75.49 76.03 75.71 75.47 73.71 72.35 69.89 70.98 73.31 74.31 77.17 77.26 77.77 77.74 75.94 74.90 76.53 71.66 71.04 69.96 69.01 69.34 70.10 71.15 71.84 71.90 71.82 72.27 72.54
77.59 77.44 77.19 76.81 76.61 76.96 77.04 77.52 75.70 76.13 76.99 77.21 76.53 77.11 76.11 74.84 75.73 74.95 75.05 74.07 71.47 67.40 67.32 73.45 72.50 77.67 76.70 76.73 75.66 77.99 77.81 71.29 71.47 70.22 69.03 68.58 69.14 69.84 69.92 69.66 69.11 68.75 69.52
77.47 77.14 77.14 77.21 77.36 77.32 77.61 78.20 76.50 77.21 76.91 76.07 75.37 76.16 76.52 75.00 75.71 75.62 74.92 74.36 73.83 71.80 68.99 71.74 73.51 75.18 77.11 76.23 76.22 77.67 77.48 74.26 71.31 70.06 69.29 68.62 68.11 68.71 68.25 67.77 67.13 67.00 67.17
77.53 77.17 77.53 77.29 77.15 77.12 77.54 77.89 77.47 76.69 76.52 76.41 76.52 76.06 76.21 77.45 75.27 74.38 74.32 74.32 73.70 73.52 70.88 71.83 73.43 76.17 76.61 76.48 76.71 77.21 76.87 76.88 75.78 68.81 68.83 67.44 66.51 66.42 66.02 65.04 64.33 64.26 64.39
77.89 77.51 77.42 77.04 76.63 76.76 77.16 77.05 76.50 76.10 75.97 75.53 75.58 75.82 75.24 74.94 76.55 76.56 74.73 75.52 74.92 75.63 73.02 72.34 74.68 73.83 75.77 76.83 76.77 76.75 76.28 75.64 76.44 69.86 67.93 66.15 64.35 62.62 60.95 60.29 59.68 59.16 59.27
77.15 76.61 76.66 76.44 76.29 76.31 76.44 76.64 76.83 76.21 76.22 75.90 75.69 75.72 75.44 75.62 75.50 75.66 77.11 74.56 73.98 75.12 76.30 73.58 72.73 74.55 75.35 75.25 75.33 76.57 77.06 77.43 76.02 71.36 67.21 64.58 61.57 60.64 59.98 59.11 58.27 57.01 55.65
76.76 76.49 76.63 76.75 76.42 76.05 76.15 76.53 76.32 76.01 75.92 75.87 76.61 75.95 75.76 75.52 75.71 75.82 75.58 76.23 72.84 74.97 75.89 73.56 73.86 73.83 73.77 75.77 74.90 73.49 72.93 75.68 74.53 75.94 71.22 69.95 66.18 62.91 60.30 57.84 58.08 57.08 55.18
75.91 76.08 75.82 75.71 76.15 76.21 75.38 75.88 75.97 75.74 75.63 75.52 76.21 76.32 75.79 73.96 68.28 70.37 76.30 75.30 73.74 74.01 72.33 71.98 71.88 72.60 74.20 71.83 73.90 73.26 72.24 73.16 76.87 73.46 78.72 69.91 68.98 71.13 64.96 60.20 59.55 55.95 55.42
75.05 75.14 74.89 74.83 74.52 74.35 60.50 60.31 64.43 73.29 74.72 74.58 74.64 75.24 75.44 69.11 68.25 66.80 67.47 67.65 69.64 74.83 74.13 73.84 73.00 71.87 74.05 75.08 74.92 71.95 71.33 71.36 72.24 73.47 76.79 72.26 71.31 68.15 64.22 58.21 54.55 54.38 54.42
73.92 73.06 74.13 73.70 71.18 71.42 58.50 58.92 60.41 67.76 72.54 73.53 74.36 74.91 74.13 72.89 70.68 73.01 64.31 62.82 62.38 62.40 63.54 68.27 73.08 74.14 73.46 73.27 71.36 71.82 73.92 73.59 72.81 69.41 71.77 72.41 72.33 68.22 64.12 56.67 54.30 54.00 53.74
71.12 71.35 71.81 70.59 70.37 67.96 56.34 58.72 62.49 66.51 71.32 73.70 72.27 73.37 73.91 71.56 64.20 64.44 68.75 67.20 67.41 62.90 64.67 68.78 71.28 67.02 66.87 66.76 70.47 72.44 72.67 73.24 71.23 69.38 67.76 71.22 69.93 68.99 66.36 59.79 54.71 54.19 53.35
70.04 67.72 64.49 61.74 61.01 59.59 54.31 57.88 63.77 69.92 68.92 65.99 63.49 66.70 65.77 63.95 54.08 55.95 66.56 69.89 65.27 61.54 56.83 57.04 57.03 57.09 56.56 56.95 60.61 68.54 68.95 67.39 70.66 70.19 63.38 65.12 67.76 64.51 67.76 66.67 58.19 54.07 52.81
65.70 62.54 59.76 59.26 57.83 60.61 54.61 54.59 61.51 70.06 69.00 68.93 67.61 63.24 54.34 61.37 54.60 53.68 66.30 68.09 66.55 67.21 64.80 63.18 62.95 61.27 62.16 61.27 59.73 64.88 64.74 64.92 66.19 66.55 59.28 61.17 63.70 60.80 60.63 67.63 64.28 61.24 60.27
MSLP
1019.79 1019.66 1019.92 1019.63 1019.64 1019.56 1019.42 1019.32 1019.22 1019.16 1019.02 1018.86 1018.84 1018.90 1018.98 1019.36 1019.42 1019.34 1019.68 1021.12 1021.38 1021.40 1021.20 1021.03 1020.84 1020.73 1020.66 1020.60 1020.47 1020.32 1020.14 1019.95 1019.85 1019.58 1019.34 1019.13 1018.92 1018.75 1018.59 1018.43 1018.25 1018.11 1017.97
1019.82 1019.69 1019.76 1019.54 1019.54 1019.58 1019.36 1019.24 1019.28 1018.95 1018.60 1018.66 1019.10 1019.07 1019.16 1019.39 1019.62 1019.63 1019.51 1020.37 1021.01 1021.05 1020.98 1020.84 1020.70 1020.66 1020.55 1020.47 1020.35 1020.18 1019.93 1019.73 1019.56 1019.32 1019.14 1019.00 1018.80 1018.36 1018.34 1018.18 1018.04 1017.80 1017.78
1019.97 1020.04 1019.63 1019.48 1019.60 1019.78 1019.70 1019.39 1019.26 1019.08 1018.51 1018.53 1019.12 1019.17 1019.27 1019.41 1019.52 1019.72 1019.47 1019.28 1020.17 1020.69 1020.67 1020.57 1020.49 1020.45 1020.33 1020.26 1020.15 1019.94 1019.69 1019.48 1019.35 1019.14 1018.90 1018.60 1018.32 1018.16 1017.82 1018.03 1017.89 1017.73 1017.72
1020.02 1019.96 1019.41 1019.33 1019.60 1019.57 1019.05 1018.90 1018.73 1018.56 1018.52 1018.54 1018.80 1018.76 1018.99 1019.08 1019.46 1019.58 1019.44 1019.33 1019.38 1019.00 1019.95 1020.08 1020.18 1020.16 1020.18 1020.05 1019.86 1019.71 1019.57 1019.40 1019.23 1019.06 1018.79 1018.41 1018.17 1017.87 1017.73 1017.78 1017.76 1017.68 1017.63
1019.92 1019.66 1019.31 1019.33 1019.63 1019.10 1018.83 1018.40 1018.62 1018.44 1018.65 1018.43 1018.54 1018.86 1018.89 1018.84 1019.08 1018.84 1019.32 1019.31 1019.12 1019.06 1018.66 1019.48 1019.68 1019.73 1019.73 1019.66 1019.58 1019.48 1019.39 1019.26 1019.12 1018.99 1018.80 1018.49 1018.16 1017.86 1017.65 1017.63 1017.55 1017.55 1017.54
1019.84 1019.69 1019.38 1019.57 1019.28 1018.70 1018.59 1018.63 1018.74 1018.84 1018.58 1018.42 1017.98 1018.37 1018.60 1018.64 1018.73 1018.68 1018.58 1018.50 1018.60 1018.78 1018.46 1018.65 1018.55 1018.18 1019.06 1019.22 1019.30 1019.29 1019.34 1019.22 1019.12 1019.01 1018.80 1018.50 1018.16 1017.84 1017.63 1017.59 1017.50 1017.40 1017.40
1019.70 1019.67 1019.24 1019.43 1019.24 1018.88 1019.20 1019.22 1019.00 1019.00 1018.60 1018.92 1018.40 1018.31 1018.49 1018.66 1018.66 1018.71 1018.43 1018.12 1018.10 1018.01 1017.96 1018.01 1018.20 1017.88 1018.02 1018.69 1018.84 1019.15 1019.07 1019.13 1019.10 1018.96 1018.75 1018.46 1018.05 1017.70 1017.50 1017.47 1017.42 1017.29 1017.20
1019.68 1019.59 1019.67 1019.41 1019.51 1019.12 1019.30 1019.31 1019.34 1018.57 1018.62 1018.82 1018.08 1017.96 1017.69 1018.13 1018.02 1018.03 1018.17 1018.07 1017.92 1017.67 1017.55 1017.71 1018.00 1018.09 1018.14 1017.88 1018.38 1018.89 1018.99 1018.99 1018.92 1018.80 1018.43 1018.14 1017.80 1017.48 1017.32 1017.29 1017.20 1017.05 1016.99
1019.57 1019.66 1019.64 1019.55 1019.60 1019.47 1019.08 1019.46 1019.36 1019.24 1018.36 1018.95 1019.06 1018.17 1017.54 1016.84 1017.39 1017.65 1017.99 1017.77 1018.04 1017.65 1017.54 1017.77 1017.87 1017.97 1018.15 1017.92 1018.04 1018.16 1018.67 1018.74 1018.59 1018.42 1018.19 1017.86 1017.54 1017.30 1017.10 1017.01 1016.92 1016.78 1016.72
1019.49 1019.54 1019.60 1019.71 1019.74 1019.42 1019.62 1019.46 1019.35 1019.54 1019.34 1018.57 1018.73 1018.64 1018.79 1018.44 1017.20 1016.70 1017.33 1017.51 1017.83 1017.60 1017.56 1017.50 1017.36 1017.60 1017.99 1017.66 1018.06 1018.28 1018.46 1018.62 1018.54 1018.39 1018.08 1017.63 1017.42 1017.14 1016.95 1016.78 1016.70 1016.54 1016.51
1019.46 1019.39 1019.56 1019.67 1019.76 1019.54 1019.63 1019.77 1019.64 1019.73 1019.31 1019.11 1018.69 1018.63 1018.79 1018.41 1018.54 1017.87 1016.90 1016.67 1017.19 1017.37 1017.36 1017.46 1017.28 1017.51 1017.78 1017.92 1017.55 1018.18 1018.46 1018.51 1018.45 1018.20 1017.90 1017.64 1017.33 1016.97 1016.74 1016.64 1016.54 1016.39 1016.31
1019.01 1019.32 1019.30 1019.53 1019.66 1019.50 1019.74 1019.54 1019.64 1019.82 1019.81 1019.70 1019.27 1019.09 1018.62 1018.30 1017.86 1017.93 1017.54 1017.31 1017.28 1017.16 1017.36 1017.37 1017.38 1017.32 1017.47 1017.51 1017.78 1018.20 1018.21 1018.25 1018.13 1017.96 1017.78 1017.64 1017.30 1016.96 1016.75 1016.57 1016.38 1016.26 1016.13
1018.69 1018.86 1019.38 1019.62 1019.36 1019.66 1019.64 1019.69 1019.87 1019.86 1019.80 1019.64 1019.77 1019.06 1019.14 1018.84 1018.70 1018.46 1018.15 1017.51 1017.55 1017.29 1017.31 1017.23 1017.33 1017.50 1017.58 1017.47 1017.47 1018.11 1018.00 1018.09 1018.06 1017.93 1017.80 1017.60 1017.30 1016.88 1016.58 1016.42 1016.36 1016.22 1016.11
1018.94 1018.94 1019.01 1019.16 1019.28 1019.39 1019.48 1019.68 1019.66 1019.60 1019.54 1019.70 1019.76 1019.78 1019.12 1019.00 1018.98 1018.72 1018.38 1018.20 1017.47 1016.77 1016.76 1017.34 1016.98 1017.33 1017.49 1017.41 1018.01 1017.90 1017.67 1018.16 1018.18 1018.07 1017.97 1017.66 1017.48 1017.31 1017.04 1016.54 1016.15 1015.93 1015.79
1018.98 1018.77 1018.82 1018.93 1018.96 1019.08 1019.28 1019.38 1019.42 1019.43 1019.57 1019.72 1019.48 1019.70 1019.58 1018.76 1018.84 1018.78 1018.68 1018.51 1018.22 1017.51 1016.79 1016.56 1017.02 1017.39 1017.48 1017.35 1017.94 1017.57 1017.38 1018.22 1018.10 1018.10 1018.00 1017.80 1017.71 1017.59 1017.33 1017.08 1016.77 1016.40 1016.06
1018.40 1018.46 1018.59 1018.70 1018.80 1018.87 1019.02 1019.36 1019.06 1019.22 1019.53 1019.52 1019.36 1019.36 1019.66 1018.97 1018.79 1018.80 1018.60 1018.39 1018.35 1018.11 1017.48 1016.92 1016.74 1017.29 1017.93 1017.81 1017.49 1017.49 1017.36 1017.67 1017.84 1017.92 1018.02 1017.97 1017.87 1017.66 1017.34 1017.02 1016.83 1016.61 1016.16
1018.10 1018.29 1018.46 1018.54 1018.58 1018.83 1018.80 1019.11 1019.14 1019.13 1019.27 1019.31 1019.44 1019.49 1019.60 1019.52 1019.04 1018.42 1018.29 1018.31 1018.19 1018.09 1017.84 1017.17 1017.17 1017.11 1017.96 1017.69 1017.50 1017.40 1017.04 1016.81 1017.14 1017.98 1018.03 1018.20 1018.10 1018.07 1017.92 1017.62 1017.26 1016.92 1016.54
1017.89 1018.08 1018.24 1018.44 1018.50 1018.54 1018.62 1018.76 1019.14 1018.68 1018.74 1018.96 1019.02 1019.13 1019.24 1019.04 1019.01 1019.31 1018.95 1018.62 1018.26 1018.45 1018.36 1017.96 1017.76 1017.63 1017.59 1017.65 1017.48 1017.52 1016.87 1016.24 1016.70 1017.83 1018.39 1018.79 1018.82 1018.65 1018.45 1018.34 1018.19 1017.78 1017.28
1017.80 1017.71 1018.04 1018.26 1018.34 1018.44 1018.56 1018.64 1018.87 1018.66 1018.65 1018.52 1018.56 1018.69 1018.79 1018.88 1018.94 1019.05 1019.09 1019.12 1019.04 1018.58 1018.68 1018.57 1017.93 1017.45 1017.44 1017.43 1017.33 1017.16 1017.09 1016.78 1016.12 1017.02 1018.38 1018.75 1019.04 1019.14 1019.11 1018.92 1018.72 1018.50 1018.16
1017.49 1017.63 1017.82 1017.95 1018.16 1018.29 1018.32 1018.40 1018.55 1018.54 1018.47 1018.32 1018.38 1018.58 1018.54 1018.71 1018.79 1018.90 1018.89 1019.11 1019.32 1019.20 1019.01 1018.58 1018.28 1018.21 1017.32 1017.18 1017.48 1016.89 1016.27 1016.08 1016.36 1016.01 1017.50 1017.55 1018.46 1019.01 1019.30 1019.44 1019.43 1019.26 1018.93
1017.34 1017.61 1017.75 1017.86 1018.00 1018.09 1018.13 1018.53 1018.49 1018.48 1018.38 1018.30 1018.24 1018.43 1018.48 1018.59 1019.06 1019.10 1019.09 1019.18 1019.34 1019.05 1018.59 1018.12 1018.07 1018.35 1018.25 1017.77 1017.74 1017.49 1016.67 1016.27 1017.05 1017.00 1017.43 1018.18 1017.78 1017.48 1018.83 1019.51 1019.62 1019.86 1019.40
1017.34 1017.50 1017.60 1017.77 1018.12 1018.24 1018.96 1019.41 1019.12 1018.70 1018.50 1018.32 1018.29 1018.25 1018.76 1019.18 1019.24 1019.40 1019.39 1019.36 1019.38 1019.07 1018.98 1018.80 1018.40 1018.06 1018.09 1018.11 1017.51 1017.31 1016.94 1016.38 1016.84 1017.90 1017.43 1016.47 1016.81 1017.97 1018.71 1019.77 1020.58 1020.36 1020.09
1017.58 1017.70 1017.72 1018.11 1018.52 1019.00 1019.06 1019.30 1019.10 1018.80 1018.37 1018.24 1018.21 1018.18 1018.65 1018.88 1019.40 1019.42 1019.73 1019.75 1019.72 1019.61 1019.48 1019.23 1018.70 1018.62 1018.49 1018.20 1018.34 1017.83 1017.49 1017.26 1017.24 1017.56 1017.74 1017.08 1016.71 1017.66 1019.00 1020.59 1020.64 1020.42 1020.31
1017.86 1018.11 1018.19 1018.32 1018.78 1019.31 1019.31 1019.14 1019.03 1018.89 1018.59 1018.48 1018.80 1018.76 1018.72 1019.20 1019.80 1019.88 1019.84 1019.84 1019.84 1020.09 1020.05 1018.86 1018.87 1019.46 1019.34 1019.27 1018.70 1018.01 1017.89 1017.83 1018.02 1017.90 1018.32 1017.63 1017.47 1017.48 1018.78 1020.26 1020.86 1020.65 1020.86
1017.68 1018.34 1018.83 1018.98 1019.42 1019.82 1019.60 1019.45 1019.26 1019.00 1019.12 1019.46 1019.53 1019.44 1019.60 1019.77 1019.95 1020.04 1019.74 1019.42 1019.91 1020.38 1020.42 1020.10 1020.36 1020.65 1020.60 1020.19 1019.55 1018.10 1017.20 1017.11 1017.25 1017.70 1018.89 1018.15 1017.59 1017.80 1017.61 1018.34 1020.04 1020.40 1020.20
1017.54 1018.45 1019.17 1019.50 1019.54 1019.69 1020.04 1019.89 1019.30 1018.80 1018.81 1018.61 1019.22 1019.64 1019.82 1019.80 1019.95 1019.92 1019.67 1019.57 1019.37 1019.16 1019.22 1019.99 1020.30 1020.30 1020.06 1019.86 1019.79 1019.39 1018.72 1017.68 1017.09 1017.22 1019.82 1019.25 1018.38 1018.58 1017.89 1017.99 1019.00 1019.37 1019.06
Wind_Speed
3 3 3 2 1 2 2 0 2 4 4 7 7 6 8 7 5 4 6 7 2 3 5 5 5 5 6 8 9 9 10 11 11 11 11 10 10 9 10 9 9 10 11
2 3 3 3 3 1 2 1 2 3 3 9 7 7 7 6 5 4 5 8 7 6 6 7 7 6 7 8 9 9 10 10 10 10 10 10 10 10 9 8 8 8 8
4 1 3 2 3 1 3 3 3 3 5 7 7 6 7 5 6 5 4 3 9 9 8 8 8 8 8 9 9 9 9 9 9 10 9 10 11 11 8 7 7 6 5
2 3 3 3 3 2 2 2 3 4 4 5 5 4 4 4 5 5 3 1 2 1 10 9 7 8 8 9 9 9 8 8 9 10 10 11 12 11 10 6 5 3 3
4 1 2 3 1 2 2 1 4 3 4 4 6 4 3 4 5 5 3 3 3 5 3 12 9 9 9 8 8 8 8 7 8 9 11 12 12 12 11 7 6 3 1
4 3 3 1 3 2 3 4 2 2 0 1 1 5 2 3 3 2 4 5 3 6 6 2 4 5 12 9 8 7 6 6 6 8 9 11 13 12 11 8 6 5 2
4 3 3 2 2 2 4 1 4 3 4 2 4 4 4 5 6 4 4 4 3 6 3 3 5 4 4 10 7 6 5 2 6 8 10 12 12 13 12 10 6 4 3
4 3 1 2 2 1 2 2 2 1 2 1 3 2 5 6 5 6 4 4 5 5 6 4 4 4 4 5 6 2 3 3 6 11 10 9 11 12 12 11 7 4 4
5 3 3 2 2 4 1 3 3 4 1 1 3 5 3 3 2 5 6 5 3 5 4 3 4 2 2 4 4 7 4 3 6 10 11 10 11 12 11 12 8 4 5
6 5 3 3 3 3 2 1 1 5 5 1 2 1 4 5 4 3 6 3 4 6 2 5 2 1 2 4 2 1 1 4 8 10 12 13 12 13 12 12 10 5 5
6 6 5 4 3 5 3 3 3 3 2 5 4 1 2 3 1 6 8 1 3 2 4 4 4 4 2 4 4 7 3 7 7 9 12 13 14 12 11 10 10 7 4
7 7 6 5 4 4 4 4 3 4 4 4 5 3 4 5 3 4 5 4 4 3 3 2 3 3 1 2 1 2 3 6 7 8 9 11 13 9 9 10 9 7 6
6 6 7 6 6 6 4 4 4 4 4 5 3 5 2 3 3 4 5 4 6 3 2 2 2 1 1 2 4 5 1 5 5 6 6 7 8 8 7 7 8 8 7
7 8 9 8 8 7 5 5 6 6 5 6 5 5 6 3 4 4 5 6 8 5 3 4 1 2 3 4 4 8 7 5 4 5 6 8 10 10 7 4 3 4 6
8 8 9 9 9 9 8 7 7 6 6 6 5 6 7 6 4 6 5 5 6 8 8 3 4 4 4 7 5 8 5 6 4 5 6 7 8 9 11 13 13 13 12
6 6 7 9 11 10 10 9 6 7 6 6 7 5 6 7 5 6 6 6 5 7 9 9 3 7 7 9 3 5 6 8 7 6 7 6 7 8 9 9 11 11 13
6 6 7 7 8 8 9 9 8 8 8 8 8 5 7 7 8 7 6 6 6 7 8 7 8 2 5 5 8 7 9 8 9 5 7 8 9 12 13 15 14 14 15
7 7 6 6 6 8 8 9 10 9 10 10 10 9 9 8 7 7 8 7 8 8 8 8 8 7 3 5 4 5 4 6 4 11 11 13 15 17 18 18 19 19 17
7 7 6 6 6 7 8 8 8 9 10 10 10 10 10 9 10 8 6 8 7 8 3 8 8 7 4 5 4 5 4 2 7 14 14 19 18 18 18 18 18 17 17
7 7 6 6 6 6 7 8 8 8 9 9 9 10 10 10 9 9 8 6 5 4 5 8 6 7 7 0 5 5 4 2 4 5 8 13 14 16 15 20 18 18 18
7 6 5 5 6 6 3 3 5 6 7 8 8 8 10 5 4 3 4 5 5 8 6 7 5 5 4 7 4 6 5 4 6 4 5 8 8 8 9 14 13 18 16
8 7 7 5 5 3 8 1 4 6 6 7 7 6 5 6 5 3 2 2 3 6 7 5 7 5 6 4 6 6 5 4 1 1 1 2 7 7 8 9 13 16 17
5 6 7 6 4 3 3 2 2 4 6 5 6 6 6 3 3 3 5 5 5 3 2 3 5 6 5 4 5 6 3 4 2 4 3 2 4 8 8 9 12 13 14
7 5 6 2 2 0 6 7 3 4 6 2 4 5 3 3 3 1 3 3 1 4 6 4 3 5 4 5 5 5 5 3 2 3 6 3 3 7 8 8 9 12 10
3 3 2 4 3 1 8 4 2 3 1 2 1 2 1 3 2 2 6 5 4 4 7 13 12 7 4 6 8 8 4 6 4 2 6 5 3 4 4 9 9 10 11
6 6 6 5 6 5 9 9 4 4 5 5 4 5 4 2 2 0 5 6 7 6 6 6 6 7 5 5 10 8 8 7 5 4 7 5 3 2 4 5 2 2 1
Wind_Direction
94 104 108 132 66 131 103 132 82 50 114 97 101 107 90 80 101 103 113 148 192 279 285 284 280 293 303 307 310 313 317 315 311 308 305 302 296 291 291 290 283 278 273
115 111 120 128 115 50 92 131 71 40 97 112 99 99 97 112 96 127 105 139 183 218 253 269 280 289 297 304 308 312 313 316 313 311 307 305 294 288 295 307 305 297 285
128 309 119 140 84 105 221 189 202 158 123 119 105 115 113 119 122 117 146 110 151 199 225 250 266 275 284 293 298 302 305 310 315 313 312 307 304 302 298 300 313 318 325
146 185 159 119 76 237 217 192 182 147 129 127 113 134 121 134 121 133 122 126 96 178 188 214 243 271 281 287 294 302 311 316 320 320 324 322 323 320 313 300 300 310 337
143 263 156 97 236 199 183 231 140 164 142 140 153 141 134 136 181 140 141 207 177 262 313 169 203 238 254 270 281 290 300 308 320 332 333 331 326 324 319 311 288 287 298
155 226 138 51 260 197 143 63 72 122 34 104 195 124 160 164 172 182 191 221 178 228 231 247 235 218 209 232 257 272 288 311 331 336 332 327 325 322 318 308 280 262 269
150 176 175 191 230 70 17 102 159 168 126 148 207 166 156 198 197 220 238 237 176 240 302 251 265 320 198 199 222 241 259 329 338 332 324 321 322 323 319 311 293 253 238
176 182 265 209 29 106 48 43 333 288 107 109 294 270 178 171 206 218 214 243 256 288 275 260 318 275 284 316 72 185 244 310 312 307 301 304 315 310 317 304 293 246 221
198 207 188 275 228 278 121 346 21 320 74 114 306 311 210 232 157 179 206 235 257 258 294 275 259 280 317 309 226 183 157 283 282 292 300 312 304 307 298 295 281 249 212
199 196 194 209 241 307 327 244 357 326 299 198 191 58 349 356 299 202 182 223 242 232 227 277 269 203 298 284 110 271 297 265 298 299 297 307 309 301 291 286 277 264 208
217 208 207 200 214 237 193 277 269 341 285 316 300 223 289 276 248 307 311 78 235 236 280 263 308 308 273 304 303 99 358 320 318 310 311 322 313 295 281 279 273 280 246
205 214 217 224 219 240 226 233 241 240 313 331 323 302 311 310 306 283 279 265 321 291 330 310 269 331 273 296 277 331 286 294 309 316 322 328 330 313 289 270 269 275 279
241 162 224 219 222 216 232 250 229 278 255 289 292 306 307 309 311 315 303 318 304 351 307 198 49 12 337 310 52 336 238 344 333 327 325 329 330 348 338 302 283 287 300
241 229 233 227 224 227 224 229 235 245 228 252 259 291 295 263 282 292 310 320 308 280 211 269 242 321 337 8 31 283 121 60 13 356 353 354 354 353 350 353 328 295 281
222 233 226 227 231 221 222 226 242 227 250 242 241 243 262 273 253 267 273 289 306 302 306 132 330 124 340 320 52 327 349 84 54 38 22 12 8 13 25 25 16 4 341
225 225 226 218 219 222 219 219 242 215 237 252 245 244 267 276 258 250 277 279 282 293 300 306 304 359 348 318 136 313 339 260 158 84 33 22 22 39 46 47 41 28 24
216 214 218 225 227 228 227 229 242 262 235 240 258 259 258 275 273 275 259 261 274 277 268 296 331 341 324 313 329 333 288 281 120 86 68 51 51 46 40 40 39 40 37
200 202 204 218 236 235 232 231 236 254 231 240 240 246 255 265 261 270 277 269 303 311 286 290 298 296 274 315 300 284 293 322 350 104 80 64 58 59 57 47 38 34 33
207 209 208 218 221 227 233 237 244 247 252 244 245 245 251 254 257 266 254 262 269 246 251 270 299 315 301 291 304 238 267 332 248 126 113 96 87 73 59 51 44 38 34
214 218 223 231 229 222 225 236 240 244 258 252 253 259 258 264 256 251 257 266 280 288 283 271 261 277 283 0 277 288 284 225 336 102 102 107 118 100 82 67 47 40 34
209 215 212 225 245 253 272 304 284 266 264 265 265 257 247 288 358 313 241 214 230 251 255 287 294 277 297 308 339 306 298 307 139 342 118 176 167 110 73 63 72 47 45
216 219 223 225 207 200 83 28 286 277 275 275 278 269 181 186 157 153 157 78 338 267 273 258 288 272 257 236 237 312 297 295 90 62 288 169 126 81 75 79 60 56 49
226 229 222 226 201 173 75 293 240 279 293 280 273 272 205 180 267 155 92 97 73 57 314 289 307 312 313 13 322 288 323 310 337 54 266 250 159 128 116 106 85 72 63
222 228 216 152 242 52 356 337 284 261 254 313 333 309 247 161 52 311 210 205 126 30 337 298 32 33 21 332 297 291 314 302 193 112 347 224 335 135 135 117 111 93 64
192 122 90 105 112 8 357 320 238 185 253 261 337 359 160 166 86 337 234 189 159 132 72 74 92 109 93 8 349 292 248 287 167 173 27 305 91 321 206 156 132 121 119
117 118 100 69 51 46 11 332 316 230 206 229 203 158 73 13 149 298 236 198 214 179 163 150 160 185 208 93 44 19 339 307 328 223 53 295 344 340 220 129 87 47 178